Location: Napa Junction
(38.1874°N, 122.2508°W)
Time: 14:26:56
(UTC+00:00)

Cosmos 1535 Rocket - Pass Details

Date: 08 September 2024
Orbit: 947 x 1004 km, 83.0° (Epoch: 07 October)

Event Time Altitude Azimuth Distance (km) Brightness Sun altitude
Rises 12:47:45 0° 352° (N) 3,706 7.6 -11.9°
Reaches altitude 10° 12:50:18 10° 351° (N) 2,746 7.0 -11.4°
Maximum altitude 12:56:36 81° 265° (W) 989 4.5 -10.2°
Drops below altitude 10° 13:02:45 10° 179° (S) 2,690 6.7 -9.0°
Sets 13:05:13 0° 178° (S) 3,625 7.4 -8.6°
